Total_Precipitation_Accumulation
4.43 4.53 4.35 4.22 4.16 4.20 4.45 4.57 4.37 4.40 4.27 4.05 3.79 3.49 3.21 2.96 2.85 3.00 3.19 3.23 3.14 3.24 3.66 3.95 3.94 3.72 3.60 3.35 3.06 2.67 2.47 2.42 2.31 2.04 1.94 2.01 2.04 1.95 1.90 1.95 1.95 1.88 1.87
4.46 4.68 4.54 4.48 4.15 4.05 4.13 4.43 4.52 4.73 4.58 4.30 3.69 3.49 3.31 3.17 3.15 3.05 3.20 3.72 3.78 3.40 3.50 3.96 4.27 4.31 4.17 3.88 3.57 3.19 2.94 2.79 2.51 2.20 2.14 2.15 2.04 1.99 2.07 2.11 2.14 1.98 1.91
4.50 4.61 4.38 4.03 3.79 3.75 4.10 4.30 4.44 4.61 4.34 4.13 3.94 3.84 3.71 3.47 3.31 3.27 3.24 3.77 3.77 3.45 3.38 3.55 3.99 4.32 4.49 4.58 4.37 4.11 3.72 3.30 2.96 2.69 2.45 2.20 2.04 1.98 2.01 2.16 2.29 2.22 2.05
3.81 4.00 3.77 3.46 3.53 3.66 3.90 4.27 4.34 4.43 4.38 4.32 4.31 4.14 3.95 3.73 3.22 3.04 2.88 3.04 3.34 3.03 3.28 3.57 3.73 3.92 4.45 4.95 5.13 5.29 4.89 4.17 3.65 3.19 2.68 2.31 2.09 1.88 1.77 1.92 2.18 2.25 2.12
3.02 3.33 3.39 3.45 3.31 3.48 3.61 3.41 3.94 4.33 4.35 4.27 3.88 3.88 3.49 3.43 3.23 2.83 2.76 2.71 2.86 3.03 3.13 3.26 3.55 3.61 4.13 5.00 5.70 6.25 6.21 5.50 4.59 3.79 3.24 2.76 2.45 2.09 1.85 1.82 1.95 2.08 2.00
2.87 3.26 3.25 3.26 3.18 3.40 3.57 3.63 4.01 4.20 3.89 3.86 3.47 3.41 3.17 2.80 2.86 2.78 2.59 2.69 2.77 2.63 2.86 3.14 3.54 3.33 3.85 4.46 5.23 6.17 6.87 6.57 5.54 4.64 4.16 3.78 3.44 2.90 2.36 2.08 1.98 2.01 1.99
3.06 3.36 3.18 3.33 3.15 3.23 3.25 3.30 3.59 3.80 3.51 3.53 4.01 3.69 3.06 2.60 2.64 2.55 2.61 2.70 2.71 2.73 3.01 3.39 3.59 3.67 3.71 3.60 3.94 4.85 6.06 6.73 6.43 5.56 5.04 4.68 4.31 3.72 3.05 2.65 2.39 2.24 2.10
2.97 3.01 3.20 3.00 2.95 3.15 3.18 3.26 3.55 3.51 3.24 3.49 4.06 4.25 3.73 3.32 2.92 2.42 2.49 2.58 2.66 2.91 3.01 3.09 3.56 3.91 3.88 4.06 3.63 3.67 4.65 5.81 6.52 6.44 5.96 5.20 4.66 4.13 3.63 3.34 3.00 2.68 2.42
2.66 2.72 2.70 2.75 2.91 2.68 2.99 3.31 3.42 3.49 3.47 3.38 3.59 4.13 4.00 3.62 3.22 2.81 2.61 2.68 2.84 3.05 3.17 3.38 3.43 3.64 3.83 4.36 4.27 3.92 3.88 4.33 5.59 6.72 6.87 6.10 5.08 4.39 4.12 3.90 3.78 3.36 2.95
2.34 2.35 2.37 2.60 2.75 2.71 3.09 2.83 3.00 3.34 3.59 3.34 3.29 3.28 3.39 3.68 3.70 3.34 2.92 2.73 2.79 2.92 3.04 3.09 3.25 3.55 3.80 4.20 4.40 3.99 3.61 3.43 3.94 5.21 6.29 6.40 5.70 4.71 4.19 4.21 4.59 4.34 3.70
2.21 2.05 2.23 2.51 2.67 2.73 2.83 2.80 2.95 2.98 3.07 3.08 3.13 3.11 3.30 3.62 3.46 3.36 3.27 3.07 2.86 2.68 2.76 2.91 3.14 3.50 3.58 3.82 4.21 3.82 3.62 3.29 3.17 3.53 4.40 5.08 5.31 5.16 4.70 4.59 5.17 5.50 5.27
2.33 2.13 2.18 2.49 2.61 2.67 2.74 2.81 2.81 2.73 2.82 2.94 2.99 3.02 3.24 3.31 3.34 3.47 3.27 2.99 2.87 2.63 2.58 2.73 2.91 3.03 3.07 3.25 3.12 3.11 3.05 3.08 3.01 2.88 3.08 3.58 4.11 4.59 4.84 5.14 5.59 6.05 6.45
2.25 2.25 2.21 2.63 2.81 2.80 2.73 2.85 2.84 2.75 2.86 2.95 2.97 2.98 3.02 2.98 3.12 3.45 3.45 3.02 2.77 2.55 2.72 2.75 2.71 2.81 2.77 3.03 2.99 2.76 2.58 2.71 2.57 2.38 2.36 2.63 3.05 3.51 3.93 4.37 4.85 5.36 5.88
2.12 2.39 2.54 2.63 2.70 2.74 2.65 2.96 2.75 2.73 2.85 2.87 2.73 3.15 3.07 2.94 3.29 3.57 3.76 3.82 3.33 2.97 2.96 2.74 2.55 2.60 2.69 2.79 2.89 2.82 2.51 2.44 2.23 2.12 2.11 2.24 2.46 2.69 3.01 3.38 3.74 4.08 4.37
2.15 2.42 2.60 2.74 2.70 2.69 2.83 3.09 2.96 2.95 3.07 2.95 2.94 3.24 3.13 3.00 3.18 3.40 3.76 4.08 4.08 3.63 3.35 3.04 2.75 2.61 2.61 2.63 2.83 2.59 2.52 2.59 2.30 2.13 2.13 2.11 2.21 2.35 2.38 2.41 2.52 2.66 2.90
2.41 2.59 2.63 2.62 2.55 2.52 2.71 3.10 3.05 3.06 3.22 3.15 3.14 3.21 3.17 3.01 3.16 3.24 3.46 3.84 4.17 4.12 3.60 2.82 2.77 2.70 2.57 2.34 2.58 2.36 2.44 2.63 2.35 2.15 2.02 1.88 1.87 1.94 1.99 2.08 2.16 2.17 2.26
2.54 2.61 2.62 2.60 2.50 2.38 2.51 2.75 2.83 3.06 3.13 3.17 3.15 3.22 3.18 3.32 3.36 3.28 3.45 3.56 3.80 4.00 3.52 2.80 2.88 3.03 2.99 2.77 2.60 2.40 2.28 2.26 2.22 2.26 1.92 1.78 1.74 1.73 1.85 2.00 2.02 1.99 2.04
2.61 2.67 2.69 2.63 2.39 2.36 2.50 2.59 2.72 2.94 3.03 3.12 3.27 3.40 3.12 3.28 3.41 3.35 3.41 3.37 3.50 3.85 3.63 3.33 3.23 3.29 3.25 2.96 2.74 2.48 2.11 1.89 1.98 2.33 2.02 1.74 1.65 1.68 1.75 1.88 1.86 1.82 1.76
2.60 2.68 2.68 2.56 2.46 2.49 2.59 2.66 2.77 2.92 2.97 3.07 3.25 3.20 3.10 3.28 3.15 3.27 3.35 3.24 3.25 3.31 3.45 3.29 3.04 3.12 3.06 2.90 2.75 2.45 2.17 2.14 1.89 1.99 2.01 1.81 1.71 1.69 1.73 1.74 1.73 1.67 1.69
2.46 2.45 2.43 2.50 2.55 2.57 2.61 2.66 2.68 2.72 2.74 2.80 2.81 2.71 2.62 2.66 2.73 2.97 2.94 2.92 3.03 3.16 3.26 3.10 2.94 2.98 2.99 3.04 2.94 2.60 2.45 2.30 2.10 1.79 1.82 1.84 1.81 1.75 1.72 1.68 1.63 1.58 1.66
2.23 2.38 2.40 2.49 2.55 2.49 2.37 2.52 2.54 2.49 2.66 2.56 2.42 2.36 2.34 2.46 2.54 2.65 2.45 2.55 2.80 2.87 2.95 3.02 2.98 3.10 3.09 3.24 3.08 2.80 2.68 2.59 2.33 2.03 1.95 1.84 1.86 1.81 1.84 1.86 1.78 1.68 1.60
2.34 2.41 2.41 2.51 2.55 2.36 2.50 2.57 2.60 2.58 2.62 2.51 2.44 2.35 2.21 2.24 2.29 2.34 2.31 2.34 2.54 2.65 2.80 2.98 2.97 3.02 3.06 3.08 3.12 3.01 2.90 2.73 2.40 2.20 2.36 2.29 2.10 2.07 2.16 2.01 1.87 1.62 1.48
2.44 2.52 2.62 2.69 2.61 2.74 2.78 2.56 2.58 2.53 2.56 2.55 2.53 2.49 2.16 1.96 2.21 2.15 2.27 2.21 2.13 2.21 2.33 2.50 2.55 2.63 2.88 3.03 3.20 3.13 3.19 3.06 2.68 2.38 2.35 2.12 2.03 2.06 2.18 2.21 1.92 1.50 1.41
2.65 2.73 2.77 2.70 2.68 2.79 2.86 2.48 2.40 2.27 2.30 2.38 2.38 2.43 2.45 2.36 2.35 2.39 2.40 2.30 2.12 2.07 2.21 2.19 2.15 2.37 2.77 3.14 3.26 3.24 3.36 3.25 2.84 2.45 2.38 2.24 2.05 2.00 1.82 1.74 1.76 1.49 1.31
2.83 2.91 3.00 3.00 2.88 2.92 2.84 2.41 2.27 2.08 2.13 2.17 2.22 2.21 2.24 2.16 2.25 2.20 2.13 2.06 1.98 1.89 1.89 1.92 1.89 2.02 2.34 2.79 3.05 3.12 3.27 3.24 2.94 2.58 2.40 2.38 2.12 2.10 1.94 1.69 1.64 1.68 1.48
3.04 3.12 3.02 2.91 2.75 2.71 2.73 2.36 2.14 1.96 2.03 2.09 2.18 2.14 2.14 2.03 2.03 1.94 1.83 1.82 1.72 1.71 1.86 1.89 1.83 1.79 1.91 2.25 2.66 2.67 2.80 3.00 2.75 2.46 2.11 2.16 2.11 2.15 2.09 1.78 1.58 1.54 1.52